Weather Roundup
Issued by NWS Corpus Christi, TX

Home | Current Version | Previous Version | Text Only | Print | Product List | Glossary On
Versions: 1 2 3 4 5 6 7 8 9 10 11 12 13 14 15 16 17 18 19 20 21 22 23 24 25 26 27 28 29 30 31 32 33 34 35 36 37 38 39 40 41 42 43 44 45 46 47 48 49 50
000
ASUS44 KCRP 271210
HRRCRP

SOUTH TEXAS REGIONAL WEATHER ROUNDUP
NATIONAL WEATHER SERVICE CORPUS CHRISTI TX
600 AM CST FRI FEB 27 2015


TXZ229>244-271300-
...CORPUS CHRISTI AREA OBSERVATIONS...

CITY           SKY/WX    TMP DP  RH WIND       PRES   REMARKS
CORPUS CHRISTI CLOUDY    40  33  76 N20       30.27S WCI  30
NAS CORPUS CHR CLOUDY    43  38  82 NE21      30.26S
ROCKPORT       CLOUDY    40  33  76 N14       30.28S WCI  32
KINGSVILLE NAS CLOUDY    41  34  76 N13G20    30.28R
ALICE          CLOUDY    39  30  70 N16       30.28S WCI  30
FALFURRIAS     CLOUDY    41  32  71 N12       30.27S
$$

...VICTORIA AREA OBSERVATIONS...

CITY           SKY/WX    TMP DP  RH WIND       PRES   REMARKS
VICTORIA       CLOUDY    37  32  82 N10       30.34R WCI  30
BEEVILLE       CLOUDY    37  30  76 NE16G22   30.30S WCI  27
PLEASANTON     FLURRIES  37  24  61 NE9       30.33R
SAN ANTONIO    CLOUDY    36  21  54 NE10      30.32R WCI  28
$$

...LAREDO AREA OBSERVATIONS...

CITY           SKY/WX    TMP DP  RH WIND       PRES   REMARKS
LAREDO         CLOUDY    39  26  60 NE17G23   30.29R WCI  30
COTULLA        CLOUDY    40  23  50 NE12      30.31S WCI  33
DEL RIO        CLOUDY    37  27  67 E3        30.27S
MCALLEN        MOCLDY    47  40  76 N14       30.21S
HEBBRONVILLE   CLOUDY   N/A N/A N/A NE12      30.27S HAZE
$$

...OTHER TEXAS OBSERVATIONS...

CITY           SKY/WX    TMP DP  RH WIND       PRES   REMARKS
BROWNSVILLE    CLOUDY    55  50  83 N6        30.18S
HOUSTON        CLOUDY    37  32  82 NE12      30.33S WCI  29
COL. STATION   CLOUDY    35  25  66 NE15      30.34R WCI  25
AUSTIN         CLOUDY    34  22  61 NE14      30.36R WCI  25
WACO           CLOUDY    29  18  63 NE14      30.39R WCI  18
FORT WORTH     MOCLDY    26  10  50 NE15      30.41F WCI  14
WICHITA FALLS  CLOUDY    23   5  46 NE16      30.46R WCI  10
LUBBOCK        SNOW      14  11  87 E14       30.26R VSB 1/2 WCI  -1
EL PASO        CLOUDY    31  22  69 E9        30.00S
$$

...MARINE OBSERVATIONS...

STATION/POSITION TIME  SKY/WX   TEMP    WIND        PRES    VSBY  WAVE   SWELL
                                AIR SEA DIR/SP/G                  HT/PER HT/PER
                 (UTC)          (F)     (DEG/KT/KT) (MB)    (MI)  (FT/S) (FT/S)
PORT ARANSAS     1200            42 55  360/ 16/ 20 1024.8R
BUOY 90 E PORT A 1200            54 67   50/ 19/ 25 1024.5R         7/ 7
BUOY 45 SE BAFFI 1200            61 69   90/ 17/ 21 1022.1R         6/ 7   2/12
BUOY 200 E PT IS 1200            63 70   50/ 17/ 21 1021.5R         7/ 7
BUOY 15 E GALVES 1200            43 56   60/ 17/ 21 1025.9R         5/ 5
$$


USA.gov is the U.S. government's official web portal to all federal, state and local government web resources and services.